Flag for India Weather past 2 weeks in Mumbai, Maharashtra, India

Now
82 °F

Mostly cloudy.


Feels Like: 91 °F
Forecast: 83 / 85 °F
Wind: 10 mph from Southwest

Location: Bombay / Santacruz

Current Time: Jul 29, 2015 at 2:12:40 AM

Latest Report: Jul 29, 2015 at 1:40 AM


Visibility: 2 mi

Pressure: 29.74 "Hg

Humidity: 84%

Dew point: 77 °F

Location of MumbaiLocation

Historic Weather in Mumbai — Graph

°F

Mumbai temperature yesterday

Maximum temperature yesterday: 84 °F (at 8:10 AM)
Minimum temperature yesterday: 79 °F (at 3:40 PM)
Average temperature yesterday: 82 °F

Past Weeks' High & Low Weather Summary

 TemperatureHumidityPressure
High91 °F (Jul 19, 3:40 PM)100% (Jul 21, 8:40 AM)29.77 "Hg (Jul 21, 8:40 AM)
Low77 °F (Jul 21, 8:40 AM)63% (Jul 14, 2:10 PM)29.53 "Hg (Jul 16, 3:40 PM)
Average84 °F82%29.65 "Hg
* Reported Jul 14 12:40 AM — Jul 29 12:40 AM, Mumbai, Weather by CustomWeather, © 2015

Note: Actual official high and low records may vary slightly from our data, if they occured in-between our weather recording intervals... More about our weather records

Advertising

Mumbai weather history for previous 24 hours

 ConditionsComfort  
Time TempWeatherWind HumidityBarometerVisibility
12:40 AM
Wed, Jul 29
81 °FMostly cloudy.12 mph89%29.77 "Hg1 mi
11:40 PM
Tue, Jul 28
82 °FMostly cloudy.10 mph84%29.77 "Hg1 mi
11:10 PM81 °FMostly cloudy.9 mph89%29.77 "Hg1 mi
10:10 PM82 °FMostly cloudy.12 mph84%29.77 "Hg1 mi
9:40 PM82 °FMostly cloudy.13 mph84%29.77 "Hg1 mi
9:10 PM82 °FMostly cloudy.14 mph84%29.77 "Hg1 mi
8:40 PM81 °FScattered showers. Mostly cloudy.12 mph89%29.77 "Hg1 mi
8:10 PM81 °FDrizzle. Mostly cloudy.8 mph89%29.74 "Hg1 mi
7:10 PM82 °FLight rain. More clouds than sun.9 mph84%29.74 "Hg1 mi
6:10 PM82 °FScattered showers. Broken clouds.10 mph84%29.74 "Hg1 mi
5:40 PM84 °FBroken clouds.17 mph79%29.71 "Hg1 mi
5:10 PM84 °FScattered showers. Broken clouds.17 mph79%29.71 "Hg1 mi
4:40 PM82 °FLight rain. More clouds than sun.14 mph84%29.71 "Hg1 mi
3:40 PM79 °FLight rain. More clouds than sun.15 mph94%29.71 "Hg1 mi
2:40 PM82 °FLight rain. More clouds than sun.13 mph84%29.74 "Hg1 mi
2:10 PM84 °FLight rain. More clouds than sun.17 mph79%29.71 "Hg1 mi
1:10 PM81 °FLight rain. More clouds than sun.18 mph94%29.74 "Hg1 mi
11:40 AM84 °FSprinkles. More clouds than sun.13 mph84%29.74 "Hg1 mi
10:40 AM81 °FScattered showers. More clouds than sun.21 mph89%29.74 "Hg1 mi
9:40 AM81 °FBroken clouds.10 mph89%29.74 "Hg2 mi
9:10 AM84 °FScattered showers. Broken clouds.15 mph84%29.74 "Hg2 mi
8:40 AM84 °FScattered showers. Broken clouds.14 mph79%29.71 "Hg2 mi
8:10 AM84 °FBroken clouds.16 mph79%29.71 "Hg2 mi
7:40 AM82 °FBroken clouds.17 mph84%29.71 "Hg2 mi
6:40 AM81 °FScattered showers. Partly cloudy.10 mph89%29.71 "Hg2 mi
6:10 AM82 °FScattered showers. Partly cloudy.16 mph84%29.71 "Hg2 mi
5:40 AM82 °FPartly cloudy.14 mph84%29.68 "Hg2 mi
5:10 AM81 °FPartly cloudy.8 mph89%29.68 "Hg2 mi
4:40 AM82 °FPartly cloudy.16 mph84%29.68 "Hg2 mi
4:10 AM82 °FPartly cloudy.10 mph84%29.68 "Hg2 mi
3:10 AM81 °FPartly cloudy.12 mph89%29.68 "Hg1 mi
2:40 AM81 °FPartly cloudy.12 mph89%29.71 "Hg1 mi
2:10 AM82 °FRain. Partly cloudy.12 mph84%29.71 "Hg1 mi
Weather by CustomWeather, © 2015

See weather overviewHow to use our weather pages